KF0AIT Weather Reports


time (UTC)temp
C
wind
direction
speed
KPH
gust
KPH
rain 1hr
cm
rain 24hr
cm
rain mn
cm
humidity
%
barometer
mb
20260904020003 27 157 0.0 1.6 0.00 0.00 0.00 62 1002.9
20260904015403 27 0 0.0 0.0 0.00 0.00 0.00 62 1002.9
20260904014503 27 157 0.0 1.6 0.00 0.00 0.00 61 1002.9
20260904013603 27 0 0.0 0.0 0.00 0.00 0.00 62 1002.9
20260904012703 27 0 0.0 0.0 0.00 0.00 0.00 61 1002.9
20260904011803 28 0 0.0 0.0 0.00 0.00 0.00 61 1002.9
20260904010903 29 0 0.0 0.0 0.00 0.00 0.00 55 1002.9
20260904010003 29 0 0.0 0.0 0.00 0.00 0.00 55 1002.9
20260904005403 29 0 0.0 0.0 0.00 0.00 0.00 55 1002.9
20260904004503 29 0 0.0 0.0 0.00 0.00 0.00 55 1002.9
20260904003603 29 0 0.0 0.0 0.00 0.00 0.00 55 1002.9
20260904002724 29 0 0.0 0.0 0.00 0.00 0.00 55 1001.8
20260904001803 29 0 0.0 0.0 0.00 0.00 0.00 55 1001.8
20260904000924 30 0 0.0 0.0 0.00 0.00 0.00 54 1001.8
20260904000003 30 157 0.0 1.6 0.00 0.00 0.00 53 1001.8
20260903235403 30 157 0.0 1.6 0.00 0.00 0.00 52 1001.8
20260903234527 30 157 0.0 1.6 0.00 0.00 0.00 52 1001.8
20260903233603 30 157 1.6 1.6 0.00 0.00 0.00 52 1001.8
20260903232724 30 157 1.6 1.6 0.00 0.00 0.00 51 1001.8
20260903231803 30 180 0.0 1.6 0.00 0.00 0.00 50 1001.8
20260903230903 30 190 0.0 4.8 0.00 0.00 0.00 48 1001.8
20260903230003 30 183 0.0 4.8 0.00 0.00 0.00 48 1001.8
20260903225424 30 180 0.0 4.8 0.00 0.00 0.00 49 1001.8
20260903224503 31 184 1.6 4.8 0.00 0.00 0.00 48 1001.8
20260903223603 31 180 3.2 3.2 0.00 0.00 0.00 46 1001.8
20260903222703 31 272 0.0 6.4 0.00 0.00 0.00 45 1001.8
20260903221803 31 200 0.0 4.8 0.00 0.00 0.00 46 1001.8
20260903220903 31 163 0.0 4.8 0.00 0.00 0.00 48 1000.8
20260903220003 31 170 4.8 4.8 0.00 0.00 0.00 48 1000.8
20260903215403 31 170 0.0 4.8 0.00 0.00 0.00 50 1000.8
20260903214503 31 171 0.0 4.8 0.00 0.00 0.00 51 1000.8
20260903213603 31 170 0.0 9.7 0.00 0.00 0.00 52 1000.8
20260903212724 31 154 0.0 6.4 0.00 0.00 0.00 52 1000.8
20260903211803 31 158 6.4 6.4 0.00 0.00 0.00 51 1000.8
20260903210904 31 167 0.0 4.8 0.00 0.00 0.00 55 1000.8
20260903210025 31 172 0.0 4.8 0.00 0.00 0.00 55 1000.8
20260903205403 30 157 1.6 4.8 0.00 0.00 0.00 58 1000.8
20260903204504 30 157 0.0 4.8 0.00 0.00 0.00 59 1000.8
20260903203603 30 160 0.0 4.8 0.00 0.00 0.00 59 1000.8
20260903202703 30 157 0.0 4.8 0.00 0.00 0.00 59 1000.8
20260903201803 30 157 0.0 3.2 0.00 0.00 0.00 60 1000.8
20260903200903 30 160 0.0 3.2 0.00 0.00 0.00 59 1000.8
20260903200004 30 140 0.0 6.4 0.00 0.00 0.00 60 1001.8
20260903195403 30 140 0.0 6.4 0.00 0.00 0.00 60 1001.8
20260903194524 30 153 0.0 6.4 0.00 0.00 0.00 60 1001.8
20260903193624 30 161 0.0 6.4 0.00 0.00 0.00 61 1001.8
20260903192724 30 154 1.6 4.8 0.00 0.00 0.00 61 1001.8
20260903191803 30 166 0.0 8.0 0.00 0.00 0.00 61 1001.8
20260903190903 30 148 0.0 1.6 0.00 0.00 0.00 62 1001.8
20260903190003 30 161 1.6 4.8 0.00 0.00 0.00 62 1001.8
20260903185424 29 164 0.0 4.8 0.00 0.00 0.00 63 1001.8
20260903184503 29 171 0.0 6.4 0.00 0.00 0.00 63 1001.8
20260903183603 29 151 0.0 3.2 0.00 0.00 0.00 64 1001.8
20260903182704 28 151 0.0 4.8 0.00 0.00 0.00 64 1001.8
20260903181803 28 165 1.6 3.2 0.00 0.00 0.00 65 1001.8
20260903180924 28 156 3.2 3.2 0.00 0.00 0.00 65 1001.8
20260903180003 27 0 0.0 0.0 0.00 0.00 0.00 66 1001.8
20260903175403 27 127 0.0 3.2 0.00 0.00 0.00 67 1001.8
20260903174503 27 0 0.0 0.0 0.00 0.00 0.00 67 1002.9
20260903173624 26 0 0.0 0.0 0.00 0.00 0.00 69 1002.9
20260903172724 26 0 0.0 0.0 0.00 0.00 0.00 69 1002.9
20260903171803 26 0 0.0 0.0 0.00 0.00 0.00 69 1002.9
20260903170903 26 0 0.0 0.0 0.00 0.00 0.00 70 1001.8
20260903170003 26 157 0.0 1.6 0.00 0.00 0.00 71 1003.9
20260903165403 26 157 0.0 1.6 0.00 0.00 0.00 71 1003.9
20260903164503 26 0 0.0 0.0 0.00 0.00 0.00 71 1002.9
20260903163603 25 0 0.0 0.0 0.00 0.00 0.00 71 1002.9
20260903162703 25 0 0.0 0.0 0.00 0.00 0.00 70 1002.9
20260903161803 26 0 0.0 0.0 0.00 0.00 0.00 70 1002.9
20260903160903 26 0 0.0 0.0 0.00 0.00 0.00 70 1002.9
20260903160003 25 157 0.0 1.6 0.00 0.00 0.00 72 1002.9
20260903155403 25 157 0.0 1.6 0.00 0.00 0.00 71 1002.9
20260903154504 25 0 0.0 0.0 0.00 0.00 0.00 72 1002.9
20260903153603 25 0 0.0 0.0 0.00 0.00 0.00 73 1002.9
20260903152703 25 0 0.0 0.0 0.00 0.00 0.00 74 1002.9
20260903151803 24 157 0.0 1.6 0.00 0.00 0.00 74 1002.9
20260903150903 24 157 0.0 1.6 0.00 0.00 0.00 75 1002.9
20260903150003 24 157 0.0 1.6 0.00 0.00 0.00 75 1002.9
20260903145403 24 157 0.0 3.2 0.00 0.00 0.00 75 1002.9
20260903144503 23 152 0.0 3.2 0.00 0.00 0.00 76 1002.9
20260903143603 23 157 0.0 1.6 0.00 0.00 0.00 77 1002.9
20260903142724 23 157 0.0 1.6 0.00 0.00 0.00 78 1002.9
20260903141803 23 157 0.0 3.2 0.00 0.00 0.00 78 1002.9
20260903140903 23 157 1.6 1.6 0.00 0.00 0.00 78 1002.9
20260903140003 22 0 0.0 0.0 0.00 0.00 0.00 79 1003.9
20260903135403 22 0 0.0 0.0 0.00 0.00 0.00 79 1003.9
20260903134503 22 0 0.0 0.0 0.00 0.00 0.00 79 1003.9
20260903133603 22 157 0.0 3.2 0.00 0.00 0.00 79 1003.9
20260903132703 22 0 0.0 0.0 0.00 0.00 0.00 80 1002.9
20260903131803 22 0 0.0 0.0 0.00 0.00 0.00 80 1002.9
20260903130924 22 0 0.0 0.0 0.00 0.00 0.00 80 1002.9
20260903130003 22 0 0.0 0.0 0.00 0.00 0.00 80 1002.9
20260903125403 22 0 0.0 0.0 0.00 0.00 0.00 80 1002.9
20260903124503 22 135 0.0 1.6 0.00 0.00 0.00 80 1002.9
20260903123603 22 0 0.0 0.0 0.00 0.00 0.00 80 1002.9
20260903122703 22 0 0.0 0.0 0.00 0.00 0.00 80 1002.9
20260903121803 22 0 0.0 0.0 0.00 0.00 0.00 81 1002.9
20260903120903 21 0 0.0 0.0 0.00 0.00 0.00 81 1002.9
20260903120004 21 0 0.0 0.0 0.00 0.00 0.00 81 1002.9
20260903115403 21 0 0.0 0.0 0.00 0.00 0.00 81 1002.9
20260903114503 21 0 0.0 0.0 0.00 0.00 0.00 81 1002.9
20260903113624 21 0 0.0 0.0 0.00 0.00 0.00 81 1002.9
20260903112703 22 0 0.0 0.0 0.00 0.00 0.00 81 1002.9
20260903111803 22 0 0.0 0.0 0.00 0.00 0.00 81 1002.9
20260903110903 22 0 0.0 0.0 0.00 0.00 0.00 81 1002.9
20260903110024 22 0 0.0 0.0 0.00 0.00 0.00 81 1002.9
20260903105403 22 135 0.0 1.6 0.00 0.00 0.00 81 1002.9
20260903104503 22 0 0.0 0.0 0.00 0.00 0.00 81 1002.9
20260903103603 22 135 0.0 1.6 0.00 0.00 0.00 82 1002.9
20260903102703 22 0 0.0 0.0 0.00 0.00 0.00 83 1002.9
20260903101824 22 0 0.0 0.0 0.00 0.00 0.00 83 1002.9
20260903100903 22 0 0.0 0.0 0.00 0.00 0.00 84 1002.9
20260903100003 22 0 0.0 0.0 0.00 0.00 0.00 84 1002.9
20260903095424 22 0 0.0 0.0 0.00 0.00 0.00 84 1002.9
20260903094524 22 0 0.0 0.0 0.00 0.00 0.00 85 1002.9
20260903093603 22 0 0.0 0.0 0.00 0.00 0.00 85 1002.9
20260903091803 22 0 0.0 0.0 0.00 0.00 0.00 86 1002.9
20260903090903 22 0 0.0 0.0 0.00 0.00 0.00 86 1002.9
20260903090003 22 0 0.0 0.0 0.00 0.00 0.00 86 1002.9
20260903085424 22 0 0.0 0.0 0.00 0.00 0.00 86 1002.9
20260903084524 22 0 0.0 0.0 0.00 0.00 0.00 86 1002.9
20260903083624 22 0 0.0 0.0 0.00 0.00 0.00 86 1002.9
20260903082703 22 0 0.0 0.0 0.00 0.00 0.00 86 1002.9
20260903081803 22 0 0.0 0.0 0.00 0.00 0.00 86 1002.9
20260903080903 22 0 0.0 0.0 0.00 0.00 0.00 86 1002.9
20260903080003 22 0 0.0 0.0 0.00 0.00 0.00 86 1002.9
20260903075403 22 0 0.0 0.0 0.00 0.00 0.00 86 1003.9
20260903074503 22 0 0.0 0.0 0.00 0.00 0.00 86 1003.9
20260903073603 22 0 0.0 0.0 0.00 0.00 0.00 85 1003.9
20260903072724 22 0 0.0 0.0 0.00 0.00 0.00 85 1003.9
20260903071803 22 0 0.0 0.0 0.00 0.00 0.00 84 1003.9
20260903070924 22 0 0.0 0.0 0.00 0.00 0.00 84 1003.9
20260903070003 22 0 0.0 0.0 0.00 0.00 0.00 83 1003.9
20260903065424 22 0 0.0 0.0 0.00 0.00 0.00 83 1003.9
20260903064503 22 0 0.0 0.0 0.00 0.00 0.00 82 1003.9
20260903063603 22 0 0.0 0.0 0.00 0.00 0.00 82 1003.9
20260903062703 22 0 0.0 0.0 0.00 0.00 0.00 81 1003.9
20260903061824 22 0 0.0 0.0 0.00 0.00 0.00 81 1003.9
20260903060903 22 0 0.0 0.0 0.00 0.00 0.00 81 1003.9
20260903060003 22 0 0.0 0.0 0.00 0.00 0.00 81 1003.9
20260903055403 22 0 0.0 0.0 0.00 0.00 0.00 81 1003.9
20260903054503 22 0 0.0 0.0 0.00 0.00 0.00 80 1003.9
20260903053603 22 0 0.0 0.0 0.00 0.00 0.00 80 1003.9
20260903052703 22 0 0.0 0.0 0.00 0.00 0.00 79 1003.9
20260903051824 23 0 0.0 0.0 0.00 0.00 0.00 79 1003.9
20260903050924 23 0 0.0 0.0 0.00 0.00 0.00 79 1005.0
20260903050003 23 0 0.0 0.0 0.00 0.00 0.00 79 1005.0
20260903045403 23 0 0.0 0.0 0.00 0.00 0.00 79 1005.0
20260903044524 23 0 0.0 0.0 0.00 0.00 0.00 78 1005.0
20260903043603 23 0 0.0 0.0 0.00 0.00 0.00 78 1005.0
20260903042703 23 135 0.0 1.6 0.00 0.00 0.00 78 1005.0
20260903041824 23 0 0.0 0.0 0.00 0.00 0.00 77 1005.0
20260903040924 23 0 0.0 0.0 0.00 0.00 0.00 76 1005.0
20260903040003 23 0 0.0 0.0 0.00 0.00 0.00 76 1005.0
20260903035403 23 0 0.0 0.0 0.00 0.00 0.00 75 1005.0
20260903034524 24 0 0.0 0.0 0.00 0.00 0.00 75 1005.0
20260903033603 24 0 0.0 0.0 0.00 0.00 0.00 74 1005.0
20260903032703 24 0 0.0 0.0 0.00 0.00 0.00 73 1005.0
20260903031803 24 0 0.0 0.0 0.00 0.00 0.00 73 1005.0
20260903030903 25 0 0.0 0.0 0.00 0.00 0.00 70 1005.0
20260903030004 25 0 0.0 0.0 0.00 0.00 0.00 70 1005.0
20260903025403 25 0 0.0 0.0 0.00 0.00 0.00 70 1005.0
20260903024503 25 0 0.0 0.0 0.00 0.00 0.00 70 1005.0
20260903023603 25 0 0.0 0.0 0.00 0.00 0.00 69 1005.0
20260903022703 26 0 0.0 0.0 0.00 0.00 0.00 67 1005.0
20260903021803 26 0 0.0 0.0 0.00 0.00 0.00 67 1005.0
20260903020903 26 0 0.0 0.0 0.00 0.00 0.00 67 1005.0